Location: Newark
(19.2128°S, 49.7858°W)
Time: 15:11:22
(UTC+00:00)

N. Korean satellite - Visible Passes

Search period start: 23 August 2019 00:00
Search period end: 02 September 2019 00:00
Orbit: 457 x 507 km, 97.2° (Epoch: 23 August)

Date Brightness Start Highest point End Pass type
(mag) Time Alt. Az. Time Alt. Az. Time Alt. Az.
24 Aug 6.4 08:51:44 10° N 08:55:09 70° WNW 08:58:37 10° SSW visible
24 Aug 10.0 22:04:33 10° SW 22:05:50 12° WSW 22:07:08 10° W visible
25 Aug 7.9 08:26:49 10° NNE 08:30:04 40° ESE 08:33:19 10° S visible
25 Aug 9.0 21:37:42 10° SSW 21:40:50 27° WSW 21:43:58 10° NW visible
26 Aug 9.5 08:02:48 10° ENE 08:05:01 16° ESE 08:07:14 10° SE visible
28 Aug 6.5 08:44:26 10° NNE 08:47:52 87° E 08:51:21 10° S visible
28 Aug 9.8 21:56:29 10° SW 21:58:37 15° WSW 22:00:45 10° WNW visible
29 Aug 8.5 08:19:43 10° NE 08:22:46 30° ESE 08:25:52 10° SSE visible
29 Aug 8.6 21:30:13 10° S 21:33:36 34° WSW 21:36:58 10° NW visible
30 Aug 9.8 07:56:10 10° ENE 07:57:45 13° ESE 07:59:21 10° SE visible
31 Aug 6.8 09:02:25 10° N 09:05:42 43° W 09:09:01 10° SSW visible
01 Sep 6.9 08:37:10 10° NNE 08:40:34 64° ESE 08:44:00 10° S visible
01 Sep 9.7 21:48:43 10° SSW 21:51:23 19° WSW 21:54:02 10° WNW visible
